User: anonymous
Location: Unspecified
(0.0000°N, 0.0000°E)
Time: 14:14:09
(UTC+02:00)
Language:

Cosmos 1782 Rocket - Orbit

View from above orbital plane
View from above orbital plane
View from above satellite
View from above satellite

Ground track
Ground track

The orbit data is extracted from the following two-line orbital elements,

1 16987U 86074B   14273.78222265  .00000303  00000-0  34848-4 0  4809
2 16987 082.5175 157.7455 0016826 282.6713 119.6621 14.82475615511700
Epoch (UTC): 30 September 2014 18:46:24
Eccentricity: 0.0016826
inclination: 82.5175°
perigee height: 610 km
apogee height: 633 km
right ascension of ascending node: 157.7455°
argument of perigee: 282.6713°
revolutions per day: 14.82475615
mean anomaly at epoch: 119.6621°
orbit number at epoch: 51170

The dashed part of the orbit path shows where the satellite is in the earth's shadow,  

DLR